DW5582 Weather Reports


time (UTC)temp
C
wind
direction
speed
KPH
gust
KPH
rain 1hr
cm
rain 24hr
cm
rain mn
cm
humidity
%
barometer
mb
20260510190019 11 64 0.0 6.4 0.00 0.00 0.00 66 1014.5
20260510184513 12 64 1.6 11.3 0.00 0.00 0.00 64 1014.5
20260510183012 12 61 3.2 14.5 0.00 0.00 0.00 63 1014.6
20260510181534 12 92 4.8 9.7 0.00 0.00 0.00 64 1014.7
20260510180021 12 70 1.6 14.5 0.00 0.00 0.00 63 1014.7
20260510174513 13 108 4.8 19.3 0.00 0.00 0.00 62 1014.8
20260510173020 13 352 3.2 14.5 0.00 0.00 0.00 63 1014.9
20260510171514 13 58 1.6 16.1 0.00 0.00 0.00 63 1015.1
20260510170012 13 73 3.2 17.7 0.00 0.00 0.00 64 1015.1
20260510164512 13 9 9.7 17.7 0.00 0.00 0.00 64 1015.2
20260510163017 13 53 1.6 17.7 0.00 0.00 0.00 64 1015.4
20260510161515 13 49 8.0 19.3 0.00 0.00 0.00 63 1015.5
20260510160012 13 38 4.8 16.1 0.00 0.00 0.00 66 1015.6
20260510154514 13 76 3.2 22.5 0.00 0.00 0.00 67 1015.8
20260510153030 13 29 3.2 19.3 0.00 0.00 0.00 67 1015.9
20260510151511 12 72 4.8 19.3 0.00 0.00 0.00 68 1016.1
20260510150016 12 44 6.4 20.9 0.00 0.00 0.00 69 1016.4
20260510144521 12 48 8.0 22.5 0.00 0.00 0.00 69 1016.5
20260510143016 12 102 9.7 27.4 0.00 0.00 0.00 69 1016.7
20260510141516 12 82 11.3 29.0 0.00 0.00 0.00 70 1016.9
20260510140012 12 53 4.8 20.9 0.00 0.00 0.00 71 1017.0
20260510134518 12 36 4.8 22.5 0.00 0.00 0.00 71 1017.0
20260510133020 12 85 9.7 22.5 0.00 0.00 0.00 71 1017.1
20260510131518 12 32 11.3 22.5 0.00 0.00 0.00 70 1017.3
20260510130020 12 89 11.3 27.4 0.00 0.00 0.00 69 1017.1
20260510124516 13 54 12.9 22.5 0.00 0.00 0.00 69 1017.3
20260510123022 12 86 9.7 24.1 0.00 0.00 0.00 70 1017.4
20260510121520 12 86 8.0 27.4 0.00 0.00 0.00 71 1017.5
20260510120020 12 98 8.0 25.7 0.00 0.00 0.00 72 1017.5
20260510114520 12 109 9.7 19.3 0.00 0.00 0.00 73 1017.7
20260510113021 12 27 8.0 24.1 0.00 0.00 0.00 74 1017.9
20260510111522 12 61 8.0 22.5 0.00 0.00 0.00 74 1018.1
20260510110008 12 51 8.0 25.7 0.00 0.00 0.00 73 1018.2
20260510104512 12 64 8.0 24.1 0.00 0.00 0.00 73 1018.2
20260510103014 12 22 9.7 25.7 0.00 0.00 0.00 73 1018.1
20260510101522 12 78 6.4 25.7 0.00 0.00 0.00 72 1018.1
20260510100005 12 44 6.4 27.4 0.00 0.00 0.00 74 1018.1
20260510094510 12 13 9.7 32.2 0.00 0.00 0.00 74 1018.3
20260510093016 12 49 6.4 17.7 0.00 0.00 0.00 75 1018.2
20260510091517 11 12 3.2 22.5 0.00 0.00 0.00 75 1018.4
20260510090021 11 5 3.2 24.1 0.00 0.00 0.00 74 1018.5
20260510084507 11 61 8.0 22.5 0.00 0.00 0.00 74 1018.5
20260510083010 11 64 6.4 25.7 0.00 0.00 0.00 74 1018.6
20260510081519 11 61 8.0 22.5 0.00 0.00 0.00 75 1018.5
20260510080019 11 25 8.0 25.7 0.00 0.00 0.00 76 1018.5
20260510074523 11 97 8.0 27.4 0.00 0.00 0.00 77 1018.4
20260510073005 10 59 12.9 29.0 0.00 0.00 0.00 80 1018.4
20260510071510 10 69 8.0 32.2 0.00 0.00 0.00 80 1018.2
20260510070025 9 72 4.8 25.7 0.00 0.00 0.00 81 1018.2
20260510064526 9 80 4.8 25.7 0.00 0.00 0.00 82 1018.3
20260510063023 9 48 8.0 24.1 0.00 0.00 0.00 82 1018.2
20260510061509 9 59 8.0 22.5 0.00 0.00 0.00 83 1018.1
20260510060014 9 62 6.4 22.5 0.00 0.00 0.00 83 1018.2
20260510054524 8 64 14.5 25.7 0.00 0.00 0.00 84 1018.2
20260510053022 8 71 8.0 19.3 0.00 0.00 0.00 84 1018.3
20260510051538 8 26 4.8 24.1 0.00 0.00 0.00 84 1018.3
20260510050012 8 19 8.0 22.5 0.00 0.00 0.00 84 1018.3
20260510044522 8 67 4.8 19.3 0.00 0.00 0.00 85 1018.2
20260510043025 8 88 3.2 17.7 0.00 0.00 0.00 85 1018.4
20260510041506 8 74 3.2 16.1 0.00 0.00 0.00 84 1018.5
20260510040010 8 40 4.8 22.5 0.00 0.00 0.00 84 1018.6
20260510034514 8 74 3.2 17.7 0.00 0.00 0.00 84 1018.5
20260510033021 8 62 4.8 19.3 0.00 0.00 0.00 84 1018.7
20260510031522 8 57 4.8 20.9 0.00 0.00 0.00 83 1018.8
20260510030007 8 71 1.6 14.5 0.00 0.00 0.00 83 1018.7
20260510024510 8 42 6.4 17.7 0.00 0.00 0.00 82 1018.6
20260510023016 9 86 6.4 16.1 0.00 0.00 0.00 81 1018.7
20260510021519 9 67 4.8 20.9 0.00 0.00 0.00 80 1018.7
20260510020024 9 62 4.8 19.3 0.00 0.00 0.00 79 1018.6
20260510014519 9 61 3.2 20.9 0.00 0.00 0.00 78 1018.6
20260510013012 10 74 1.6 20.9 0.00 0.00 0.00 77 1018.7
20260510011526 10 69 1.6 16.1 0.00 0.00 0.00 77 1018.6
20260510010034 10 60 4.8 19.3 0.00 0.00 0.00 76 1018.5
20260510004524 10 61 4.8 19.3 0.00 0.00 0.00 75 1018.7
20260510003011 10 45 1.6 22.5 0.00 0.00 0.00 74 1018.7
20260510001516 10 39 3.2 16.1 0.00 0.00 0.00 74 1018.6
20260510000021 11 65 3.2 14.5 0.00 0.00 0.00 74 1018.5
20260509234525 11 33 1.6 19.3 0.00 0.00 0.00 77 1018.4
20260509233024 11 32 8.0 24.1 0.00 0.00 0.00 81 1018.2
20260509231515 11 53 1.6 12.9 0.00 0.00 0.00 82 1018.2
20260509230016 11 62 0.0 6.4 0.00 0.00 0.00 82 1018.0
20260509224521 12 62 0.0 6.4 0.00 0.00 0.00 81 1017.8
20260509223027 12 62 0.0 4.8 0.00 0.00 0.00 80 1017.9
20260509221541 12 62 0.0 6.4 0.00 0.00 0.00 79 1018.1
20260509220013 13 44 1.6 8.0 0.00 0.00 0.00 78 1018.0
20260509214517 13 57 1.6 6.4 0.00 0.00 0.00 76 1018.0
20260509213025 13 49 0.0 12.9 0.00 0.00 0.00 76 1017.9
20260509211523 14 34 4.8 17.7 0.00 0.00 0.00 75 1017.7
20260509210025 14 38 6.4 17.7 0.00 0.00 0.00 74 1017.5
20260509204513 14 54 1.6 6.4 0.00 0.00 0.00 69 1017.5
20260509203020 14 21 3.2 12.9 0.00 0.00 0.00 66 1017.4
20260509201524 14 80 0.0 4.8 0.00 0.00 0.00 64 1017.0
20260509200031 15 80 0.0 6.4 0.00 0.00 0.00 63 1016.7
20260509194525 15 80 0.0 6.4 0.00 0.00 0.00 62 1016.7
20260509193017 16 80 0.0 4.8 0.00 0.00 0.00 60 1016.6
20260509191520 16 80 0.0 6.4 0.00 0.00 0.00 59 1016.6